When you browse on this site, cookies collect data to enhance your experience and personalize the content and advertising you see.
Visit our Privacy Policy to learn more. By continuing to use the site, you agree to this use of cookies and data.
  • En España
  • Lista de países
  • Para 7 días
  • Temperatura del agua
  • El tiempo en el mapa
  • Informadores
  • user-avatar
    Iniciar sesión

    Tiempo cada hora Herceg Novi

    Hoy, 6 Junio, Sábado

    Tiempo Temperatura Precipitaciones Viento Presión Humedad
    00:00 +16°C° 0 mm 5 mps 753 mmHg 71%
    01:00 +16°C° 0 mm 6 mps 752 mmHg 72%
    02:00 +16°C° 0 mm 5 mps 752 mmHg 70%
    03:00 +16°C° 0 mm 5 mps 752 mmHg 69%
    04:00 +16°C° 0 mm 5 mps 752 mmHg 67%
    05:00 +18°C° 0 mm 4 mps 753 mmHg 69%
    06:00 +19°C° 0 mm 4 mps 753 mmHg 70%
    07:00 +21°C° 0 mm 3 mps 753 mmHg 70%
    08:00 +22°C° 0 mm 3 mps 753 mmHg 70%
    09:00 +22°C° 0 mm 3 mps 753 mmHg 71%
    10:00 +23°C° 0 mm 4 mps 754 mmHg 71%
    11:00 +25°C° 0 mm 4 mps 754 mmHg 72%
    12:00 +25°C° 0 mm 3 mps 754 mmHg 73%
    13:00 +27°C° 0 mm 3 mps 754 mmHg 60%
    14:00 +27°C° 0.1 mm 3 mps 754 mmHg 66%
    15:00 +26°C° 0.1 mm 3 mps 754 mmHg 72%
    16:00 +25°C° 0.1 mm 3 mps 754 mmHg 78%
    17:00 +22°C° 0 mm 3 mps 754 mmHg 82%
    18:00 +21°C° 0 mm 2 mps 754 mmHg 86%
    19:00 +19°C° 0 mm 2 mps 754 mmHg 89%
    20:00 +19°C° 0 mm 2 mps 755 mmHg 86%
    21:00 +20°C° 0 mm 1 mps 755 mmHg 84%
    22:00 +20°C° 0 mm 1 mps 755 mmHg 81%
    23:00 +19°C° 0 mm 2 mps 755 mmHg 82%

    Mañana, 7 Junio, Domingo

    Tiempo Temperatura Precipitaciones Viento Presión Humedad
    00:00 +18°C° 0 mm 2 mps 755 mmHg 84%
    01:00 +17°C° 0 mm 2 mps 755 mmHg 85%
    02:00 +17°C° 0 mm 2 mps 756 mmHg 86%
    03:00 +17°C° 0 mm 2 mps 756 mmHg 88%
    04:00 +16°C° 0 mm 2 mps 756 mmHg 90%
    05:00 +18°C° 0 mm 3 mps 756 mmHg 86%
    06:00 +20°C° 0 mm 3 mps 756 mmHg 83%
    07:00 +22°C° 0 mm 3 mps 756 mmHg 80%
    08:00 +22°C° 0 mm 4 mps 756 mmHg 78%
    09:00 +23°C° 0 mm 5 mps 756 mmHg 76%
    10:00 +25°C° 0 mm 5 mps 756 mmHg 74%
    11:00 +25°C° 0 mm 5 mps 756 mmHg 74%
    12:00 +25°C° 0 mm 4 mps 756 mmHg 74%
    13:00 +25°C° 0 mm 3 mps 756 mmHg 74%
    14:00 +25°C° 0 mm 3 mps 756 mmHg 72%
    15:00 +25°C° 0 mm 4 mps 756 mmHg 69%
    16:00 +25°C° 0 mm 4 mps 756 mmHg 67%
    17:00 +23°C° 0 mm 4 mps 756 mmHg 75%
    18:00 +21°C° 0 mm 5 mps 756 mmHg 82%
    19:00 +19°C° 0 mm 5 mps 756 mmHg 89%
    20:00 +19°C° 0 mm 6 mps 756 mmHg 89%
    21:00 +17°C° 0 mm 6 mps 757 mmHg 89%
    22:00 +17°C° 0 mm 6 mps 757 mmHg 89%
    23:00 +17°C° 0 mm 6 mps 757 mmHg 89%

    Pasado mañana, 8 Junio, Lunes

    Tiempo Temperatura Precipitaciones Viento Presión Humedad
    00:00 +17°C° 0 mm 6 mps 756 mmHg 89%
    01:00 +17°C° 0 mm 6 mps 756 mmHg 89%
    02:00 +17°C° 0 mm 6 mps 756 mmHg 88%
    03:00 +17°C° 0 mm 6 mps 756 mmHg 87%
    04:00 +17°C° 0 mm 6 mps 756 mmHg 86%
    05:00 +19°C° 0 mm 6 mps 756 mmHg 86%
    06:00 +20°C° 0 mm 6 mps 756 mmHg 85%
    07:00 +21°C° 0 mm 6 mps 756 mmHg 85%
    08:00 +22°C° 0 mm 6 mps 756 mmHg 82%
    09:00 +23°C° 0 mm 6 mps 756 mmHg 78%
    10:00 +24°C° 0 mm 6 mps 756 mmHg 75%
    11:00 +24°C° 0.1 mm 6 mps 756 mmHg 76%
    12:00 +25°C° 0.1 mm 5 mps 756 mmHg 77%
    13:00 +25°C° 0.1 mm 5 mps 756 mmHg 78%
    14:00 +25°C° 0 mm 5 mps 756 mmHg 73%
    15:00 +26°C° 0 mm 5 mps 755 mmHg 68%
    16:00 +26°C° 0 mm 5 mps 755 mmHg 63%
    17:00 +25°C° 0 mm 5 mps 755 mmHg 71%
    18:00 +22°C° 0 mm 6 mps 755 mmHg 78%
    19:00 +20°C° 0 mm 6 mps 755 mmHg 86%
    20:00 +20°C° 0.3 mm 6 mps 756 mmHg 87%
    21:00 +19°C° 0.3 mm 6 mps 756 mmHg 88%
    22:00 +17°C° 0.3 mm 6 mps 756 mmHg 89%
    23:00 +17°C° 1.1 mm 6 mps 756 mmHg 91%

    9 Junio, Martes

    Tiempo Temperatura Precipitaciones Viento Presión Humedad
    00:00 +17°C° 1.1 mm 6 mps 756 mmHg 93%
    01:00 +17°C° 1.1 mm 6 mps 756 mmHg 95%
    02:00 +17°C° 0.8 mm 6 mps 756 mmHg 94%
    03:00 +17°C° 0.8 mm 6 mps 756 mmHg 94%
    04:00 +17°C° 0.8 mm 5 mps 756 mmHg 93%
    05:00 +19°C° 0.4 mm 5 mps 756 mmHg 91%
    06:00 +21°C° 0.4 mm 4 mps 756 mmHg 88%
    07:00 +22°C° 0.4 mm 4 mps 756 mmHg 86%
    08:00 +25°C° 0.2 mm 4 mps 756 mmHg 77%
    09:00 +26°C° 0.2 mm 4 mps 756 mmHg 69%
    10:00 +27°C° 0.2 mm 4 mps 756 mmHg 60%
    11:00 +27°C° 0.1 mm 4 mps 756 mmHg 63%
    12:00 +27°C° 0.1 mm 3 mps 756 mmHg 65%
    13:00 +27°C° 0.1 mm 3 mps 756 mmHg 68%
    14:00 +27°C° 0 mm 3 mps 756 mmHg 69%
    15:00 +26°C° 0 mm 3 mps 756 mmHg 70%
    16:00 +26°C° 0 mm 3 mps 756 mmHg 71%
    17:00 +24°C° 0 mm 3 mps 756 mmHg 76%
    18:00 +22°C° 0 mm 3 mps 756 mmHg 80%
    19:00 +21°C° 0 mm 3 mps 756 mmHg 85%
    20:00 +20°C° 0.4 mm 3 mps 757 mmHg 87%
    21:00 +19°C° 0.4 mm 3 mps 757 mmHg 89%
    22:00 +18°C° 0.4 mm 3 mps 757 mmHg 92%
    23:00 +18°C° 0.3 mm 3 mps 757 mmHg 91%

    10 Junio, Miércoles

    Tiempo Temperatura Precipitaciones Viento Presión Humedad
    00:00 +18°C° 0.3 mm 3 mps 757 mmHg 91%
    01:00 +17°C° 0.3 mm 3 mps 757 mmHg 90%
    02:00 +17°C° 0.5 mm 2 mps 757 mmHg 90%
    03:00 +17°C° 0.5 mm 2 mps 757 mmHg 90%
    04:00 +17°C° 0.5 mm 2 mps 757 mmHg 91%
    05:00 +19°C° 0.5 mm 2 mps 757 mmHg 89%
    06:00 +21°C° 0.5 mm 2 mps 757 mmHg 88%
    07:00 +23°C° 0.5 mm 2 mps 757 mmHg 86%
    08:00 +24°C° 0.2 mm 2 mps 757 mmHg 84%
    09:00 +24°C° 0.2 mm 2 mps 757 mmHg 81%
    10:00 +25°C° 0.2 mm 3 mps 757 mmHg 79%
    11:00 +25°C° 0.1 mm 2 mps 757 mmHg 73%
    12:00 +26°C° 0.1 mm 2 mps 757 mmHg 68%
    13:00 +27°C° 0.1 mm 2 mps 757 mmHg 62%
    14:00 +26°C° 0 mm 2 mps 756 mmHg 60%
    15:00 +26°C° 0 mm 1 mps 756 mmHg 57%
    16:00 +26°C° 0 mm 1 mps 756 mmHg 55%
    17:00 +24°C° 0 mm 1 mps 756 mmHg 66%
    18:00 +22°C° 0 mm 1 mps 756 mmHg 78%
    19:00 +20°C° 0 mm 1 mps 756 mmHg 90%
    20:00 +19°C° 0.2 mm 1 mps 756 mmHg 89%
    21:00 +19°C° 0.2 mm 1 mps 757 mmHg 88%
    22:00 +18°C° 0.2 mm 1 mps 757 mmHg 88%
    23:00 +18°C° 0.3 mm 1 mps 757 mmHg 85%

    11 Junio, Jueves

    Tiempo Temperatura Precipitaciones Viento Presión Humedad
    00:00 +18°C° 0.3 mm 1 mps 757 mmHg 82%
    01:00 +16°C° 0.3 mm 1 mps 756 mmHg 80%
    02:00 +16°C° 0 mm 2 mps 756 mmHg 79%
    03:00 +16°C° 0 mm 2 mps 756 mmHg 78%
    04:00 +16°C° 0 mm 2 mps 756 mmHg 78%
    05:00 +18°C° 0 mm 2 mps 756 mmHg 75%
    06:00 +21°C° 0 mm 1 mps 755 mmHg 72%
    07:00 +23°C° 0 mm 1 mps 755 mmHg 70%
    08:00 +23°C° 0.3 mm 2 mps 755 mmHg 73%
    09:00 +23°C° 0.3 mm 2 mps 755 mmHg 76%
    10:00 +24°C° 0.3 mm 2 mps 755 mmHg 79%
    11:00 +24°C° 0.1 mm 2 mps 755 mmHg 74%
    12:00 +25°C° 0.1 mm 1 mps 754 mmHg 70%
    13:00 +25°C° 0.1 mm 1 mps 754 mmHg 66%
    14:00 +25°C° 0 mm 1 mps 754 mmHg 65%
    15:00 +25°C° 0 mm 1 mps 754 mmHg 64%
    16:00 +25°C° 0 mm 1 mps 754 mmHg 63%
    17:00 +23°C° 0 mm 1 mps 754 mmHg 72%
    18:00 +21°C° 0 mm 1 mps 754 mmHg 81%
    19:00 +20°C° 0 mm 1 mps 754 mmHg 90%
    20:00 +20°C° 0 mm 1 mps 754 mmHg 89%
    21:00 +19°C° 0 mm 1 mps 755 mmHg 87%
    22:00 +19°C° 0 mm 1 mps 755 mmHg 86%
    23:00 +19°C° 0 mm 1 mps 755 mmHg 87%
    Mostrar más